| time (UTC) | temp C | wind direction | speed KPH | gust KPH | rain 1hr cm | rain 24hr cm | rain mn cm | humidity % | barometer mb |
| 20260504223000 | 22 | 220 | 3.2 | 27.4 | 0.00 | 0.00 | 0.00 | 35 | 1005.1 |
| 20260504220000 | 22 | 241 | 4.8 | 20.9 | 0.00 | 0.00 | 0.00 | 35 | 1005.2 |
| 20260504212945 | 22 | 236 | 4.8 | 20.9 | 0.00 | 0.00 | 0.00 | 35 | 1005.2 |
| 20260504211344 | 22 | 232 | 4.8 | 25.7 | 0.00 | 0.00 | 0.00 | 36 | 1005.2 |
| 20260504204329 | 22 | 40 | 4.8 | 20.9 | 0.00 | 0.00 | 0.00 | 33 | 1005.2 |
| 20260504195915 | 21 | 147 | 3.2 | 22.5 | 0.00 | 0.00 | 0.00 | 34 | 1005.2 |
| 20260504192913 | 20 | 243 | 6.4 | 22.5 | 0.00 | 0.00 | 0.00 | 36 | 1005.5 |
| 20260504191313 | 21 | 272 | 4.8 | 14.5 | 0.00 | 0.00 | 0.00 | 34 | 1005.6 |
| 20260504182852 | 22 | 248 | 8.0 | 33.8 | 0.00 | 0.00 | 0.00 | 35 | 1005.7 |
| 20260504182619 | 21 | 252 | 8.0 | 32.2 | 0.00 | 0.00 | 0.00 | 32 | 1005.9 |
| 20260504175634 | 21 | 239 | 6.4 | 30.6 | 0.00 | 0.00 | 0.00 | 35 | 1006.1 |
| 20260504045529 | 0 | 283 | 0.0 | 0.0 | 0.00 | 0.08 | 0.00 | 88 | 1009.5 |
| 20260504042504 | 0 | 283 | 0.0 | 0.0 | 0.00 | 0.08 | 0.00 | 86 | 1009.4 |
| 20260504035509 | 0 | 283 | 0.0 | 0.0 | 0.00 | 0.08 | 0.08 | 85 | 1009.2 |
| 20260504032455 | 0 | 283 | 0.0 | 0.0 | 0.00 | 0.08 | 0.08 | 83 | 1009.1 |
| 20260504025456 | 1 | 283 | 0.0 | 0.0 | 0.00 | 0.08 | 0.08 | 81 | 1009.1 |
| 20260504022450 | 1 | 283 | 0.0 | 0.0 | 0.00 | 0.08 | 0.08 | 78 | 1009.0 |
| 20260504015454 | 2 | 283 | 0.0 | 0.0 | 0.00 | 0.08 | 0.08 | 75 | 1008.7 |
| 20260504012435 | 4 | 283 | 0.0 | 0.0 | 0.00 | 0.08 | 0.08 | 72 | 1008.6 |
| 20260504005433 | 5 | 283 | 0.0 | 0.0 | 0.00 | 0.08 | 0.08 | 67 | 1008.2 |
| 20260504002426 | 7 | 283 | 0.0 | 1.6 | 0.00 | 0.08 | 0.08 | 62 | 1007.8 |
| 20260503235426 | 9 | 283 | 1.6 | 12.9 | 0.00 | 0.08 | 0.08 | 50 | 1007.5 |
| 20260503232423 | 10 | 293 | 3.2 | 19.3 | 0.00 | 0.13 | 0.08 | 46 | 1007.2 |
| 20260503225418 | 10 | 261 | 6.4 | 22.5 | 0.00 | 0.13 | 0.08 | 45 | 1006.9 |